Location: *
(40.7873°S, 98.7174°E)
Time: 10:53:05
(UTC+00:00)

Kosmos-1816 - Pass Details

Date: 20 June 2024
Orbit: 959 x 1007 km, 82.9° (Epoch: 23 July)

Event Time Altitude Azimuth Distance (km) Brightness Sun altitude
Rises 23:32:31 0° 51° (NE) 3,713 10.5 -14.1°
Reaches altitude 10° 23:36:39 10° 77° (ENE) 2,785 9.8 -13.3°
Maximum altitude 23:39:18 13° 102° (ESE) 2,588 9.1 -12.9°
Drops below altitude 10° 23:41:57 10° 126° (SE) 2,806 8.9 -12.4°
Sets 23:46:08 0° 152° (SSE) 3,770 9.2 -11.6°
